Terug naar catalogus

STARLINK-4291

ActiefCommunicatieVLEO
NORAD 52988·PAYLOAD·🇺🇸 United States

Gelanceerd Jul 7, 2022 vanaf Cape Canaveral Space Force Station

Loading…

Volgende Passages (komende 24 uur)

TLE

VersSource: CelesTrak SupGP

Epoch: Sep 14, 2026, 21:37 UTC

1 52988C 22076C   26257.90118056 -.00009818  00000+0 -29796-3 0  2571
2 52988  53.1586 310.0601 0001167  87.4924 340.8014 15.33547859    13

Volg STARLINK-4291 in realtime met AllMySat

Download on the App Store